Regional Weather Roundup
Issued by NWS New Orleans/Baton Rouge, LA

Home | Current Version | Previous Version | Text Only | Print | Product List | Glossary On
Versions: 1 2 3 4 5 6 7 8 9 10 11 12 13 14 15 16 17 18 19 20 21 22 23 24 25 26 27 28 29 30 31 32 33 34 35 36 37 38 39 40 41 42 43 44 45 46 47 48 49 50
000
ASUS44 KLIX 170213
RWRLIX
NEW ORLEANS REGIONAL WEATHER ROUNDUP
NATIONAL WEATHER SERVICE NEW ORLEANS LA
900 PM CDT MON OCT 16 2017

NOTE: "FAIR" INDICATES FEW OR NO CLOUDS BELOW 12,000 FEET WITH NO
      SIGNIFICANT WEATHER AND/OR OBSTRUCTIONS TO VISIBILITY.
      SKY/WX - SKY CONDITION AND SIGNIFICANT WEATHER.
      TMP - AIR TEMPERATURE.     DP    - DEWPOINT TEMPERATURE.
      RH  - RELATIVE HUMIDITY.   PRES  - PRESSURE.
      HI  - HEAT INDEX.          WCI   - WIND CHILL INDEX.

*  THESE STATIONS ARE NOT NWS OR FAA STATIONS AND ARE NOT UNDER
   NWS QUALITY CONTROL.

LAZ038-040-048-061>063-065>067-069-170300-
SOUTHEAST LOUISIANA

CITY           SKY/WX    TMP DP  RH WIND       PRES   REMARKS
N.O. INTL ARPT CLOUDY    70  52  52 N15       30.16R
N.O. LAKEFRONT CLOUDY    71  54  54 NE20      30.17R
N.O. DOWNTOWN*   N/A     70  50  49 N12G21    30.17R
RESERVE*       NOT AVBL
SLIDELL        PTCLDY    60  53  77 N6        30.16R
BATON ROUGE    PTCLDY    61  49  64 CALM      30.20R
BOOTHVILLE     CLOUDY    73  57  57 N14G23    30.11R
BELLE CHASSE   NOT AVBL
BOGALUSA*        N/A     58  52  80 CALM      30.20R
GALLIANO*      MOCLDY    69  49  49 N10G16    30.14R
NEW ROADS*       N/A     59  46  61 N7        30.21R
GONZALES*        N/A     63  49  60 N6        30.18R
HAMMOND*       CLEAR     57  50  77 CALM      30.18S
HOUMA*         PTCLDY    65  48  55 N10       30.16R
PORT FOURCHON* CLEAR     72  54  53 N23       30.13R

$$

MSZ070-080>082-170300-
SOUTHERN MISSISSIPPI

CITY           SKY/WX    TMP DP  RH WIND       PRES   REMARKS
MCCOMB         CLOUDY    59  46  62 N7        30.20R
GULFPORT       PTCLDY    64  50  60 N9        30.15R
BILOXI         PTCLDY    64  52  64 N12       30.15R
PASCAGOULA     CLOUDY    62  52  69 N12       30.14S
STENNIS ARPT*  CLEAR     59  55  88 N6        30.17R

$$

COASTAL OBSERVATIONS
LAKE AND NEARSHORE STATIONS

STATION/POSITION TIME  TEMP    WIND        PRES    WAVE
                       AIR SEA DIR/SP/G            HT/PER
                 (UTC) (F)     (DEG/KT/KT) (MB)    (FT/S)
PASCAGOULA       0142   64      20/  9/ 13 1020.1
WAVELAND YACHT   0142   67 76   10/ 11/ 15 1021.3
GRAND ISLE       0142   72 78   30/ 22/ 25 1020.0
SOUTHWEST PASS   0148           30/ 24/ 28   N/A
NEW CANAL        0142   72 79   40/ 20/ 24 1021.0
SHELL BEACH      0142   72 79   10/ 22/ 29 1020.6

OFFSHORE STATIONS

STATION/POSITION TIME  TEMP    WIND        PRES    WAVE
                       AIR SEA DIR/SP/G            HT/PER
                 (UTC) (F)     (DEG/KT/KT) (MB)    (FT/S)
64 S DAUPHIN ISL 0150   74 83   20/ 21/ 25 1019.1    6/ 6

$$




USA.gov is the U.S. government's official web portal to all federal, state and local government web resources and services.